EW3791 Weather Reports


Display with metric or nautical units.
time (UTC)temp
F
wind
direction
speed
MPH
gust
MPH
rain 1hr
in
rain 24hr
in
rain mn
in
humidity
%
barometer
mb
20260906203111 84 210 4.0 7.0 0.00 0.33 0.33 84 1012.1
20260906201524 83 207 0.0 4.0 0.00 0.33 0.33 87 1011.7
20260906200005 81 234 3.0 7.0 0.00 0.33 0.33 89 1011.8
20260906194554 80 238 4.0 8.0 0.00 0.33 0.33 90 1012.4
20260906193019 80 201 3.0 7.0 0.01 0.33 0.33 92 1012.6
20260906191605 79 227 1.0 7.0 0.02 0.33 0.33 93 1012.9
20260906190035 79 212 3.0 7.0 0.02 0.33 0.33 93 1013.0
20260906184504 78 139 0.0 5.0 0.02 0.33 0.33 93 1013.2
20260906183050 79 116 3.0 8.0 0.02 0.32 0.32 92 1013.1
20260906181542 79 85 2.0 8.0 0.05 0.31 0.31 92 1013.3
20260906180110 79 51 3.0 8.0 0.12 0.31 0.31 92 1013.2
20260906174544 79 329 0.0 3.0 0.28 0.55 0.31 93 1013.4
20260906173013 79 41 1.0 5.0 0.30 0.54 0.30 93 1013.4
20260906171609 78 48 3.0 6.0 0.26 0.50 0.26 92 1013.5
20260906170023 79 160 7.0 19.0 0.18 0.42 0.18 87 1013.7
20260906164607 85 165 5.0 10.0 0.02 0.26 0.02 84 1013.6
20260906163035 88 243 0.0 5.0 0.00 0.24 0.00 80 1013.3
20260906161505 89 7 0.0 4.0 0.00 0.24 0.00 77 1013.2
20260906160158 88 83 0.0 8.0 0.00 0.24 0.00 78 1013.2
20260906154535 88 8 0.0 5.0 0.00 0.24 0.00 79 1013.2
20260906153101 87 39 1.0 4.0 0.00 0.24 0.00 80 1013.3
20260906151528 86 40 2.0 5.0 0.00 0.24 0.00 81 1013.3
20260906150110 86 40 1.0 5.0 0.00 0.24 0.00 82 1013.3
20260906144605 86 18 1.0 5.0 0.00 0.24 0.00 82 1013.2
20260906143021 86 32 0.0 0.0 0.00 0.24 0.00 83 1013.2
20260906141559 85 58 0.0 0.0 0.00 0.24 0.00 84 1013.2
20260906140027 85 85 0.0 0.0 0.00 0.24 0.00 85 1013.2
20260906134607 84 129 0.0 0.0 0.00 0.24 0.00 87 1013.1
20260906133035 82 137 0.0 2.0 0.00 0.24 0.00 90 1012.9
20260906131509 81 49 0.0 0.0 0.00 0.24 0.00 92 1013.0
20260906130056 80 51 0.0 0.0 0.00 0.24 0.00 92 1012.6
20260906124514 80 51 0.0 0.0 0.00 0.24 0.00 93 1012.5
20260906123057 80 51 0.0 0.0 0.00 0.24 0.00 93 1012.3
20260906121527 79 51 0.0 0.0 0.00 0.24 0.00 93 1012.1
20260906120116 80 51 0.0 0.0 0.00 0.24 0.00 92 1011.9
20260906114549 80 53 0.0 0.0 0.00 0.24 0.00 92 1011.7
20260906113015 80 53 0.0 0.0 0.00 0.24 0.00 92 1011.7
20260906111604 80 53 0.0 0.0 0.00 0.24 0.00 92 1011.8
20260906110036 80 68 0.0 0.0 0.00 0.24 0.00 91 1011.7
20260906104501 81 102 0.0 0.0 0.00 0.24 0.00 90 1011.5
20260906103043 81 131 0.0 0.0 0.00 0.24 0.00 90 1011.2
20260906101513 81 131 0.0 0.0 0.00 0.24 0.00 89 1011.2
20260906100057 81 193 0.0 0.0 0.00 0.24 0.00 88 1011.2
20260906094552 82 193 0.0 0.0 0.00 0.24 0.00 88 1011.2
20260906093133 82 193 0.0 0.0 0.00 0.24 0.00 88 1011.1
20260906091554 82 193 0.0 0.0 0.00 0.24 0.00 87 1011.1
20260906090025 82 193 0.0 0.0 0.00 0.24 0.00 87 1010.9
20260906084606 82 193 0.0 0.0 0.00 0.24 0.00 87 1010.9
20260906083045 82 193 0.0 0.0 0.00 0.24 0.00 86 1010.9
20260906081512 83 193 0.0 3.0 0.00 0.24 0.00 86 1011.0
20260906080049 83 191 0.0 3.0 0.00 0.24 0.00 86 1011.1
20260906074521 83 212 0.0 4.0 0.00 0.24 0.00 86 1011.2
20260906073057 83 212 0.0 5.0 0.00 0.24 0.00 86 1011.3
20260906071528 83 225 1.0 6.0 0.00 0.24 0.00 86 1011.3
20260906070001 83 191 1.0 7.0 0.00 0.24 0.00 86 1011.3
20260906064539 83 226 1.0 6.0 0.00 0.24 0.00 86 1011.4
20260906063006 83 257 2.0 6.0 0.00 0.24 0.00 85 1011.3
20260906061549 83 186 1.0 5.0 0.00 0.24 0.00 85 1011.4
20260906060015 83 198 0.0 6.0 0.00 0.24 0.00 85 1011.4
20260906054550 83 203 0.0 6.0 0.00 0.24 0.00 86 1011.4
20260906053016 83 191 3.0 7.0 0.00 0.24 0.00 86 1011.5
20260906051608 83 179 2.0 7.0 0.00 0.24 0.00 86 1011.5
20260906050036 83 153 3.0 8.0 0.00 0.24 0.00 86 1011.4
20260906044509 83 167 1.0 7.0 0.00 0.24 0.24 87 1011.5
20260906043052 83 193 2.0 6.0 0.00 0.24 0.24 87 1011.6
20260906041527 83 167 2.0 6.0 0.00 0.24 0.24 87 1011.6
20260906040109 83 152 1.0 3.0 0.00 0.24 0.24 87 1011.6
20260906034541 83 161 3.0 6.0 0.00 0.24 0.24 87 1011.7
20260906033008 83 141 2.0 5.0 0.00 0.24 0.24 87 1011.7
20260906031557 83 102 2.0 4.0 0.00 0.24 0.24 86 1011.6
20260906030033 83 83 2.0 4.0 0.00 0.24 0.24 87 1011.5
20260906024505 83 94 3.0 7.0 0.00 0.24 0.24 86 1011.3
20260906023044 83 117 3.0 7.0 0.00 0.24 0.24 87 1011.0
20260906021512 83 51 1.0 5.0 0.00 0.24 0.24 87 1010.8
20260906020058 83 91 2.0 5.0 0.00 0.24 0.24 87 1010.8
20260906014542 83 86 3.0 7.0 0.00 0.24 0.24 86 1010.7
20260906013109 83 69 3.0 8.0 0.00 0.24 0.24 86 1010.6
20260906011543 84 66 6.0 9.0 0.00 0.24 0.24 84 1010.5
20260906010025 86 134 6.0 11.0 0.00 0.24 0.24 81 1010.4
20260906004613 86 108 4.0 8.0 0.00 0.24 0.24 79 1010.5
20260906003032 87 94 4.0 11.0 0.00 0.24 0.24 78 1010.3
20260906001505 87 121 5.0 9.0 0.00 0.24 0.24 76 1010.5
20260906000058 88 98 5.0 12.0 0.00 0.24 0.24 73 1010.7
20260905234525 89 91 4.0 8.0 0.00 0.24 0.24 69 1010.9
20260905233106 89 96 2.0 7.0 0.00 0.24 0.24 68 1010.9
20260905231540 89 161 3.0 9.0 0.00 0.24 0.24 68 1010.6
20260905230005 89 165 5.0 10.0 0.00 0.24 0.24 68 1010.5
20260905224551 90 118 5.0 9.0 0.00 0.24 0.24 68 1010.4
20260905223025 90 148 3.0 8.0 0.00 0.24 0.24 68 1010.5
20260905221617 90 106 4.0 10.0 0.00 0.24 0.24 67 1010.3
20260905220036 91 117 5.0 8.0 0.00 0.24 0.24 66 1010.3
20260905214504 92 113 1.0 6.0 0.00 0.24 0.24 66 1010.3
20260905213057 92 138 2.0 6.0 0.00 0.24 0.24 65 1010.4
20260905211511 92 104 0.0 5.0 0.00 0.24 0.24 64 1010.7
20260905210059 91 84 3.0 6.0 0.00 0.24 0.24 66 1010.6
20260905204530 92 122 5.0 10.0 0.00 0.24 0.24 65 1010.7